EWG9CB EDXW-EDDS

Flight info

Callsign EWG9CB
Flight time 1h 13m
Altitude 37000
Route OLDIP1B OLDIP DCT BADOS DCT OMWEG Y348 ELSOB L619 AMLUH M852 POVEL/N0440F380 DCT UPDAT DCT BERXO/N0441F370 DCT SILWE DCT OSBIT P605 TOSTU T726 LBU
Aircraft A319/M-SDE3FGHIRWY/LB1

Departure

Time 2026-04-30 20:11
Airport Westerland Sylt Airport (EDXW)

Arrival

Time 2026-04-30 21:25
Airport Stuttgart Airport (EDDS)
Time Latitude Longitude Altitude Speed Heading
2026-04-30 19:34 54.91386 8.33136 28 ft 0 kts 270°
2026-04-30 20:03 54.91395 8.33211 28 ft 4 kts 226°
2026-04-30 20:03 54.91407 8.33229 28 ft 0 kts 207°
2026-04-30 20:05 54.91369 8.33241 28 ft 5 kts 164°
2026-04-30 20:06 54.91325 8.33236 28 ft 8 kts 204°
2026-04-30 20:06 54.91272 8.33187 28 ft 8 kts 202°
2026-04-30 20:06 54.91209 8.33178 29 ft 10 kts 179°
2026-04-30 20:06 54.91129 8.33179 29 ft 15 kts 179°
2026-04-30 20:07 54.91018 8.33152 29 ft 17 kts 209°
2026-04-30 20:07 54.90932 8.33123 27 ft 14 kts 152°
2026-04-30 20:07 54.90751 8.33222 33 ft 13 kts 176°
2026-04-30 20:08 54.90651 8.33233 32 ft 16 kts 176°
2026-04-30 20:08 54.90535 8.33253 30 ft 18 kts 169°
2026-04-30 20:08 54.90414 8.33341 30 ft 20 kts 149°
2026-04-30 20:08 54.90324 8.33485 29 ft 18 kts 127°
2026-04-30 20:09 54.90269 8.33683 29 ft 16 kts 109°
2026-04-30 20:09 54.90246 8.33892 29 ft 19 kts 99°
2026-04-30 20:09 54.90259 8.34384 31 ft 22 kts 79°
2026-04-30 20:10 54.90316 8.34935 34 ft 25 kts 80°
2026-04-30 20:10 54.90365 8.35137 37 ft 16 kts 50°
2026-04-30 20:10 54.90462 8.35116 39 ft 17 kts 325°
2026-04-30 20:11 54.91298 8.34080 40 ft 137 kts 324°
2026-04-30 20:11 54.92169 8.33017 431 ft 156 kts 327°
2026-04-30 20:11 54.93052 8.31952 1186 ft 154 kts 327°
2026-04-30 20:12 54.95017 8.29536 1872 ft 195 kts 326°
2026-04-30 20:12 54.96160 8.28101 2360 ft 207 kts 325°
2026-04-30 20:12 54.97324 8.26638 3034 ft 210 kts 325°
2026-04-30 20:13 54.98312 8.24770 3658 ft 216 kts 294°
2026-04-30 20:13 54.98386 8.22182 4267 ft 221 kts 251°
2026-04-30 20:13 54.97594 8.19878 4952 ft 223 kts 234°
2026-04-30 20:13 54.96684 8.17684 5640 ft 225 kts 233°
2026-04-30 20:14 54.95751 8.15476 6293 ft 228 kts 232°
2026-04-30 20:14 54.94593 8.13603 6903 ft 230 kts 206°
2026-04-30 20:14 54.93057 8.12981 7483 ft 231 kts 177°
2026-04-30 20:14 54.91485 8.13847 7753 ft 250 kts 143°
2026-04-30 20:15 54.90060 8.15818 8230 ft 271 kts 139°
2026-04-30 20:15 54.88588 8.17940 8988 ft 279 kts 138°
2026-04-30 20:15 54.87085 8.20104 9829 ft 281 kts 139°
2026-04-30 20:15 54.85557 8.22280 10641 ft 285 kts 139°
2026-04-30 20:16 54.84015 8.24473 11444 ft 288 kts 138°
2026-04-30 20:16 54.82445 8.26660 12241 ft 292 kts 142°
2026-04-30 20:16 54.80724 8.28576 13012 ft 296 kts 145°
2026-04-30 20:16 54.78970 8.30492 13748 ft 300 kts 145°
2026-04-30 20:17 54.77190 8.32432 14460 ft 304 kts 144°
2026-04-30 20:17 54.75388 8.34392 15166 ft 308 kts 144°
2026-04-30 20:17 54.73566 8.36377 15856 ft 311 kts 144°
2026-04-30 20:17 54.71724 8.38384 16525 ft 315 kts 144°
2026-04-30 20:18 54.69924 8.40556 17171 ft 316 kts 135°
2026-04-30 20:18 54.68431 8.43336 17804 ft 316 kts 122°
2026-04-30 20:18 54.67344 8.46623 18424 ft 315 kts 110°
2026-04-30 20:18 54.66528 8.50152 19036 ft 318 kts 109°
2026-04-30 20:19 54.65698 8.53720 19621 ft 322 kts 109°
2026-04-30 20:19 54.65139 8.56099 19996 ft 325 kts 109°
2026-04-30 20:19 54.63983 8.60974 20748 ft 330 kts 109°
2026-04-30 20:19 54.63109 8.64663 21280 ft 334 kts 109°
2026-04-30 20:20 54.62184 8.68373 21790 ft 340 kts 115°
2026-04-30 20:20 54.60878 8.71822 22191 ft 351 kts 126°
2026-04-30 20:20 54.59165 8.74962 22321 ft 368 kts 131°
2026-04-30 20:20 54.57332 8.78164 22450 ft 382 kts 132°
2026-04-30 20:21 54.55317 8.81296 22573 ft 400 kts 143°
2026-04-30 20:21 54.52839 8.83659 22735 ft 414 kts 150°
2026-04-30 20:21 54.50250 8.85930 23082 ft 420 kts 151°
2026-04-30 20:21 54.47624 8.88202 23489 ft 424 kts 151°
2026-04-30 20:22 54.44972 8.90477 23902 ft 428 kts 151°
2026-04-30 20:22 54.42300 8.92763 24307 ft 431 kts 151°
2026-04-30 20:22 54.39612 8.95068 24712 ft 433 kts 151°
2026-04-30 20:22 54.36904 8.97394 25110 ft 437 kts 151°
2026-04-30 20:23 54.34182 8.99730 25517 ft 439 kts 151°
2026-04-30 20:23 54.31446 9.02077 25911 ft 441 kts 151°
2026-04-30 20:23 54.28692 9.04441 26285 ft 444 kts 151°
2026-04-30 20:23 54.25922 9.06824 26663 ft 447 kts 151°
2026-04-30 20:24 54.23134 9.09221 27042 ft 450 kts 151°
2026-04-30 20:24 54.20331 9.11622 27412 ft 452 kts 151°
2026-04-30 20:24 54.17546 9.13997 27768 ft 454 kts 152°
2026-04-30 20:24 54.14673 9.16441 28124 ft 456 kts 152°
2026-04-30 20:25 54.08999 9.21264 28772 ft 462 kts 152°
2026-04-30 20:25 54.06080 9.23736 29098 ft 464 kts 152°
2026-04-30 20:26 54.00275 9.28653 29731 ft 468 kts 152°
2026-04-30 20:26 53.94431 9.33596 30341 ft 471 kts 152°
2026-04-30 20:26 53.91525 9.36036 30615 ft 473 kts 152°
2026-04-30 20:27 53.85610 9.41000 31270 ft 475 kts 152°
2026-04-30 20:27 53.79701 9.45950 32046 ft 473 kts 152°
2026-04-30 20:28 53.73814 9.50843 32833 ft 470 kts 152°
2026-04-30 20:28 53.68157 9.56256 33562 ft 465 kts 140°
2026-04-30 20:29 53.63722 9.64038 34274 ft 458 kts 122°
2026-04-30 20:30 53.59791 9.76545 35223 ft 453 kts 114°
2026-04-30 20:30 53.53228 9.87694 36218 ft 463 kts 152°
2026-04-30 20:31 53.44525 9.94736 37170 ft 461 kts 152°
2026-04-30 20:32 53.35915 10.01604 37454 ft 454 kts 152°
2026-04-30 20:32 53.30214 10.06183 37448 ft 455 kts 152°
2026-04-30 20:33 53.21641 10.13042 37449 ft 456 kts 152°
2026-04-30 20:34 53.13055 10.19861 37442 ft 456 kts 152°
2026-04-30 20:35 53.04455 10.26663 37437 ft 456 kts 151°
2026-04-30 20:35 52.95840 10.33457 37442 ft 457 kts 151°
2026-04-30 20:36 52.90091 10.37954 37442 ft 457 kts 151°
2026-04-30 20:37 52.81469 10.44701 37440 ft 457 kts 151°
2026-04-30 20:37 52.75715 10.49197 37440 ft 457 kts 151°
2026-04-30 20:38 52.69953 10.53672 37442 ft 458 kts 151°
2026-04-30 20:38 52.64191 10.58138 37443 ft 458 kts 151°
2026-04-30 20:39 52.55543 10.64804 37439 ft 458 kts 151°
2026-04-30 20:40 52.46884 10.71452 37442 ft 458 kts 151°
2026-04-30 20:40 52.41103 10.75878 37438 ft 458 kts 151°
2026-04-30 20:41 52.35088 10.79433 37438 ft 465 kts 165°
2026-04-30 20:41 52.31915 10.80146 37440 ft 468 kts 173°
2026-04-30 20:41 52.25422 10.81019 37439 ft 468 kts 172°
2026-04-30 20:42 52.18907 10.80785 37441 ft 473 kts 191°
2026-04-30 20:42 52.12895 10.76538 37441 ft 474 kts 217°
2026-04-30 20:43 52.10400 10.73052 37440 ft 473 kts 229°
2026-04-30 20:43 52.08374 10.68879 37439 ft 469 kts 240°
2026-04-30 20:43 52.06800 10.64247 37443 ft 467 kts 245°
2026-04-30 20:44 52.02224 10.50259 37442 ft 468 kts 244°
2026-04-30 20:45 51.96012 10.31701 37438 ft 470 kts 239°
2026-04-30 20:45 51.91619 10.23842 37437 ft 474 kts 218°
2026-04-30 20:46 51.82743 10.17061 37442 ft 473 kts 195°
2026-04-30 20:46 51.79592 10.15532 37442 ft 473 kts 195°
2026-04-30 20:47 51.70162 10.10977 37436 ft 474 kts 195°
2026-04-30 20:48 51.60682 10.06402 37441 ft 474 kts 195°
2026-04-30 20:48 51.54355 10.03374 37438 ft 475 kts 195°
2026-04-30 20:49 51.48022 10.00348 37440 ft 475 kts 195°
2026-04-30 20:50 51.38537 9.95814 37438 ft 473 kts 195°
2026-04-30 20:50 51.32223 9.92816 37440 ft 474 kts 195°
2026-04-30 20:51 51.25899 9.89823 37441 ft 474 kts 195°
2026-04-30 20:51 51.19454 9.87946 37441 ft 470 kts 180°
2026-04-30 20:51 51.16193 9.87665 37437 ft 470 kts 180°
2026-04-30 20:52 51.09653 9.87101 37435 ft 471 kts 180°
2026-04-30 20:53 50.99836 9.86236 37428 ft 472 kts 180°
2026-04-30 20:53 50.93275 9.85663 37431 ft 473 kts 180°
2026-04-30 20:54 50.83420 9.84818 37423 ft 473 kts 180°
2026-04-30 20:55 50.73545 9.83965 37422 ft 474 kts 180°
2026-04-30 20:55 50.66952 9.83401 37421 ft 475 kts 180°
2026-04-30 20:56 50.57085 9.82546 37413 ft 476 kts 180°
2026-04-30 20:57 50.47149 9.81689 37402 ft 477 kts 180°
2026-04-30 20:57 50.40519 9.81128 37402 ft 478 kts 180°
2026-04-30 20:58 50.30560 9.80286 37403 ft 478 kts 180°
2026-04-30 20:58 50.23912 9.79732 37393 ft 479 kts 180°
2026-04-30 20:59 50.13925 9.78899 37389 ft 479 kts 180°
2026-04-30 21:00 50.07277 9.78361 37079 ft 476 kts 177°
2026-04-30 21:00 50.00690 9.78717 36581 ft 473 kts 173°
2026-04-30 21:01 49.94125 9.79134 36083 ft 474 kts 174°
2026-04-30 21:01 49.90822 9.79343 35838 ft 477 kts 173°
2026-04-30 21:01 49.84149 9.79774 35267 ft 482 kts 173°
2026-04-30 21:02 49.80771 9.79997 34127 ft 491 kts 173°
2026-04-30 21:02 49.77330 9.80228 32897 ft 499 kts 173°
2026-04-30 21:02 49.73855 9.80455 31765 ft 498 kts 173°
2026-04-30 21:02 49.70418 9.80665 30782 ft 491 kts 173°
2026-04-30 21:03 49.67012 9.80842 29693 ft 488 kts 173°
2026-04-30 21:03 49.63675 9.80980 29136 ft 472 kts 174°
2026-04-30 21:03 49.60423 9.81239 28553 ft 464 kts 168°
2026-04-30 21:03 49.57261 9.82035 27924 ft 458 kts 165°
2026-04-30 21:04 49.54144 9.82904 27273 ft 455 kts 165°
2026-04-30 21:04 49.51030 9.83772 26644 ft 452 kts 165°
2026-04-30 21:04 49.44933 9.85469 25398 ft 444 kts 165°
2026-04-30 21:05 49.41909 9.86308 24782 ft 440 kts 165°
2026-04-30 21:05 49.38907 9.87136 24167 ft 436 kts 165°
2026-04-30 21:05 49.35952 9.87946 23568 ft 432 kts 165°
2026-04-30 21:05 49.32983 9.88760 22972 ft 428 kts 165°
2026-04-30 21:06 49.30070 9.89558 22405 ft 424 kts 165°
2026-04-30 21:06 49.27180 9.90346 21846 ft 420 kts 165°
2026-04-30 21:06 49.24302 9.91051 21304 ft 419 kts 171°
2026-04-30 21:06 49.21389 9.90817 20772 ft 422 kts 188°
2026-04-30 21:07 49.18619 9.89340 20247 ft 424 kts 206°
2026-04-30 21:07 49.16230 9.86727 19701 ft 423 kts 224°
2026-04-30 21:07 49.14423 9.83217 19156 ft 419 kts 241°
2026-04-30 21:07 49.13272 9.79168 18595 ft 414 kts 252°
2026-04-30 21:08 49.12286 9.75057 18016 ft 411 kts 251°
2026-04-30 21:08 49.11305 9.70972 17445 ft 408 kts 251°
2026-04-30 21:08 49.10329 9.66926 16860 ft 405 kts 251°
2026-04-30 21:08 49.09355 9.62908 16260 ft 402 kts 251°
2026-04-30 21:09 49.08384 9.58926 15655 ft 399 kts 251°
2026-04-30 21:09 49.07425 9.54997 15054 ft 396 kts 250°
2026-04-30 21:09 49.06429 9.51097 14431 ft 393 kts 245°
2026-04-30 21:09 49.05037 9.47534 13814 ft 390 kts 232°
2026-04-30 21:10 49.03216 9.44516 13231 ft 385 kts 220°
2026-04-30 21:10 49.01065 9.42157 12649 ft 379 kts 208°
2026-04-30 21:10 48.98770 9.40243 12077 ft 374 kts 206°
2026-04-30 21:10 48.96504 9.38362 11505 ft 369 kts 206°
2026-04-30 21:11 48.94264 9.36503 10985 ft 363 kts 206°
2026-04-30 21:11 48.92097 9.34695 10812 ft 348 kts 207°
2026-04-30 21:11 48.90224 9.32392 10382 ft 346 kts 230°
2026-04-30 21:11 48.89082 9.29266 10328 ft 331 kts 248°
2026-04-30 21:12 48.88385 9.26016 10338 ft 316 kts 253°
2026-04-30 21:12 48.87787 9.22825 10127 ft 313 kts 254°
2026-04-30 21:12 48.87207 9.19669 9871 ft 309 kts 254°
2026-04-30 21:12 48.86639 9.16538 9627 ft 307 kts 254°
2026-04-30 21:13 48.86078 9.13415 9381 ft 306 kts 254°
2026-04-30 21:13 48.85525 9.10307 9127 ft 304 kts 254°
2026-04-30 21:13 48.84978 9.07206 8876 ft 303 kts 254°
2026-04-30 21:13 48.84437 9.04121 8629 ft 302 kts 254°
2026-04-30 21:14 48.83901 9.01039 8371 ft 302 kts 254°
2026-04-30 21:14 48.83369 8.97959 8119 ft 301 kts 254°
2026-04-30 21:14 48.82840 8.94889 7867 ft 300 kts 254°
2026-04-30 21:14 48.82315 8.91826 7613 ft 300 kts 253°
2026-04-30 21:15 48.81796 8.88766 7282 ft 299 kts 254°
2026-04-30 21:15 48.81277 8.85718 6932 ft 298 kts 253°
2026-04-30 21:15 48.80764 8.82680 6585 ft 297 kts 253°
2026-04-30 21:15 48.80260 8.79647 6238 ft 297 kts 253°
2026-04-30 21:16 48.79703 8.76641 5879 ft 294 kts 245°
2026-04-30 21:16 48.78613 8.74075 5527 ft 287 kts 221°
2026-04-30 21:16 48.77035 8.72366 5180 ft 276 kts 199°
2026-04-30 21:16 48.75219 8.71655 4824 ft 266 kts 178°
2026-04-30 21:17 48.73429 8.71935 4466 ft 252 kts 158°
2026-04-30 21:17 48.72378 8.72588 4236 ft 243 kts 146°
2026-04-30 21:17 48.71089 8.74105 4008 ft 226 kts 130°
2026-04-30 21:17 48.70215 8.75986 4013 ft 216 kts 115°
2026-04-30 21:18 48.69550 8.78007 3998 ft 214 kts 115°
2026-04-30 21:18 48.68890 8.80019 4007 ft 213 kts 114°
2026-04-30 21:18 48.68232 8.82030 4008 ft 213 kts 114°
2026-04-30 21:18 48.67573 8.84040 4001 ft 213 kts 114°
2026-04-30 21:19 48.66914 8.86045 3998 ft 213 kts 114°
2026-04-30 21:19 48.66255 8.88057 3998 ft 213 kts 115°
2026-04-30 21:19 48.65597 8.90060 4006 ft 213 kts 114°
2026-04-30 21:19 48.64938 8.92063 4003 ft 212 kts 115°
2026-04-30 21:20 48.64303 8.94078 4008 ft 212 kts 108°
2026-04-30 21:20 48.64101 8.96184 4001 ft 197 kts 86°
2026-04-30 21:20 48.64380 8.98077 4035 ft 172 kts 75°
2026-04-30 21:20 48.64691 8.99693 3998 ft 150 kts 76°
2026-04-30 21:21 48.64972 9.01166 3846 ft 142 kts 76°
2026-04-30 21:21 48.65242 9.02579 3667 ft 138 kts 76°
2026-04-30 21:21 48.65771 9.05341 3306 ft 136 kts 76°
2026-04-30 21:22 48.66033 9.06713 3127 ft 136 kts 76°
2026-04-30 21:22 48.66819 9.10808 2561 ft 139 kts 74°
2026-04-30 21:23 48.67098 9.12240 2352 ft 140 kts 74°
2026-04-30 21:23 48.67365 9.13650 2224 ft 140 kts 74°
2026-04-30 21:23 48.67894 9.16497 1867 ft 143 kts 74°
2026-04-30 21:24 48.68176 9.17959 1640 ft 146 kts 74°
2026-04-30 21:24 48.68459 9.19423 1459 ft 143 kts 73°
2026-04-30 21:24 48.68728 9.20831 1289 ft 138 kts 74°
2026-04-30 21:24 48.68967 9.22084 1239 ft 104 kts 74°
2026-04-30 21:25 48.69200 9.23310 1211 ft 37 kts 73°
2026-04-30 21:25 48.69308 9.23580 1209 ft 20 kts 49°
2026-04-30 21:25 48.69373 9.23682 1228 ft 7 kts 45°
2026-04-30 21:26 48.69412 9.23732 1236 ft 11 kts 31°
2026-04-30 21:26 48.69487 9.23731 1260 ft 8 kts 329°
2026-04-30 21:27 48.69501 9.23534 1255 ft 13 kts 252°
2026-04-30 21:27 48.69468 9.23360 1231 ft 20 kts 254°
2026-04-30 21:27 48.69437 9.23194 1226 ft 18 kts 254°
2026-04-30 21:28 48.69367 9.22839 1229 ft 18 kts 256°
2026-04-30 21:28 48.69336 9.22657 1233 ft 18 kts 254°
2026-04-30 21:28 48.69266 9.22289 1241 ft 18 kts 254°
2026-04-30 21:29 48.69230 9.22106 1252 ft 18 kts 254°
2026-04-30 21:29 48.69128 9.21565 1261 ft 18 kts 253°
2026-04-30 21:30 48.69064 9.21225 1269 ft 16 kts 253°
2026-04-30 21:31 48.68975 9.20756 1279 ft 15 kts 253°
2026-04-30 21:31 48.68916 9.20448 1285 ft 15 kts 253°
2026-04-30 21:32 48.68860 9.20157 1292 ft 14 kts 255°
2026-04-30 21:32 48.68831 9.20014 1295 ft 14 kts 241°
2026-04-30 21:32 48.68768 9.19885 1296 ft 16 kts 242°
2026-04-30 21:32 48.68734 9.19726 1300 ft 16 kts 254°
2026-04-30 21:33 48.68705 9.19570 1304 ft 15 kts 253°
2026-04-30 21:33 48.68649 9.19275 1312 ft 14 kts 254°
2026-04-30 21:33 48.68676 9.19161 1317 ft 12 kts 338°
2026-04-30 21:34 48.68759 9.19158 1317 ft 13 kts 38°
2026-04-30 21:34 48.68819 9.19434 1313 ft 11 kts 63°
2026-04-30 21:34 48.68869 9.19440 1314 ft 7 kts 342°
2026-04-30 21:35 48.68899 9.19427 1315 ft 0 kts 345°